TimeEDT,TemperatureF,Dew PointF,Humidity,Sea Level PressureIn,VisibilityMPH,Wind Direction,Wind SpeedMPH,Gust SpeedMPH,PrecipitationIn,Events,Conditions,WindDirDegrees,DateUTC
12:51 AM,62.1,61.0,96,29.68,9.0,WNW,3.5,-,N/A,,Overcast,290,2013-05-12 04:51:00
1:51 AM,63.0,55.9,78,29.68,10.0,West,6.9,-,0.00,,Partly Cloudy,260,2013-05-12 05:51:00
2:51 AM,61.0,55.9,83,29.66,10.0,West,5.8,-,N/A,,Partly Cloudy,280,2013-05-12 06:51:00
3:51 AM,61.0,53.1,75,29.68,10.0,West,5.8,-,N/A,,Mostly Cloudy,270,2013-05-12 07:51:00
4:51 AM,61.0,50.0,67,29.68,10.0,West,3.5,-,N/A,,Overcast,260,2013-05-12 08:51:00
5:51 AM,57.9,51.1,78,29.71,8.0,West,5.8,-,0.03,Rain,Light Rain,260,2013-05-12 09:51:00
6:51 AM,57.9,48.9,72,29.69,10.0,West,8.1,-,0.00,Rain,Light Rain,270,2013-05-12 10:51:00
7:51 AM,57.0,46.9,69,29.70,10.0,West,6.9,-,0.00,,Mostly Cloudy,280,2013-05-12 11:51:00
8:51 AM,60.1,44.1,55,29.70,10.0,WNW,9.2,-,N/A,,Clear,290,2013-05-12 12:51:00
9:51 AM,62.1,44.1,52,29.70,10.0,NW,8.1,-,N/A,,Clear,310,2013-05-12 13:51:00
10:51 AM,64.9,45.0,48,29.68,10.0,West,8.1,-,N/A,,Clear,270,2013-05-12 14:51:00
11:51 AM,64.9,45.0,48,29.68,10.0,West,13.8,-,N/A,,Mostly Cloudy,280,2013-05-12 15:51:00
12:51 PM,66.9,45.0,45,29.68,10.0,WSW,13.8,21.9,N/A,,Mostly Cloudy,250,2013-05-12 16:51:00
1:51 PM,66.0,39.9,38,29.69,10.0,West,18.4,24.2,N/A,,Scattered Clouds,260,2013-05-12 17:51:00
2:51 PM,66.0,34.0,30,29.68,10.0,WNW,16.1,26.5,N/A,,Clear,290,2013-05-12 18:51:00
3:51 PM,66.0,30.0,26,29.69,10.0,West,13.8,28.8,N/A,,Clear,260,2013-05-12 19:51:00
4:51 PM,64.0,30.9,29,29.70,10.0,West,19.6,28.8,N/A,,Clear,260,2013-05-12 20:51:00
5:51 PM,63.0,30.0,29,29.74,10.0,WSW,16.1,27.6,N/A,,Clear,250,2013-05-12 21:51:00
6:51 PM,61.0,26.1,26,29.78,10.0,West,12.7,26.5,N/A,,Clear,260,2013-05-12 22:51:00
7:51 PM,57.9,26.1,30,29.81,10.0,West,12.7,-,N/A,,Clear,260,2013-05-12 23:51:00
8:51 PM,55.9,28.0,34,29.84,10.0,WNW,9.2,16.1,N/A,,Partly Cloudy,290,2013-05-13 00:51:00
9:51 PM,54.0,28.0,37,29.90,10.0,WNW,16.1,-,N/A,,Clear,290,2013-05-13 01:51:00
10:51 PM,52.0,28.0,40,29.92,10.0,WNW,11.5,-,N/A,,Clear,290,2013-05-13 02:51:00
11:51 PM,51.1,28.0,41,29.93,10.0,West,10.4,18.4,N/A,,Clear,280,2013-05-13 03:51:00